N0YFE Weather Reports


Display with metric or nautical units.
time (UTC)temp
F
wind
direction
speed
MPH
gust
MPH
rain 1hr
in
rain 24hr
in
rain mn
in
humidity
%
barometer
mb
20260502223059 65 99 4.0 8.0 0.00 0.00 0.00 31 1011.5
20260502221557 65 80 0.0 8.0 0.00 0.00 0.00 32 1011.5
20260502220056 65 72 5.0 14.0 0.00 0.00 0.00 30 1011.7
20260502214554 66 49 5.0 14.0 0.00 0.00 0.00 30 1011.9
20260502213052 66 103 3.0 8.0 0.00 0.00 0.00 30 1012.2
20260502211555 66 78 4.0 11.0 0.00 0.00 0.00 30 1012.4
20260502210046 65 80 5.0 12.0 0.00 0.00 0.00 30 1012.7
20260502204543 65 115 3.0 10.0 0.00 0.00 0.00 32 1013.0
20260502203041 63 60 3.0 11.0 0.00 0.00 0.00 31 1013.4
20260502201537 64 342 4.0 10.0 0.00 0.00 0.00 31 1013.7
20260502200039 64 60 5.0 11.0 0.00 0.00 0.00 30 1014.5
20260502194533 63 125 1.0 13.0 0.00 0.00 0.00 32 1014.7
20260502193027 62 60 4.0 9.0 0.00 0.00 0.00 31 1015.0
20260502191525 62 39 6.0 13.0 0.00 0.00 0.00 31 1015.4
20260502190022 62 112 4.0 11.0 0.00 0.00 0.00 31 1015.6
20260502184527 61 49 3.0 10.0 0.00 0.00 0.00 31 1015.5
20260502183016 61 36 4.0 12.0 0.00 0.00 0.00 33 1016.3
20260502181515 60 328 5.0 11.0 0.00 0.00 0.00 32 1016.4
20260502163111 56 108 3.0 14.0 0.00 0.00 0.00 35 1018.2
20260502161601 56 131 5.0 9.0 0.00 0.00 0.00 35 1017.9
20260502151551 53 79 4.0 8.0 0.00 0.00 0.00 39 1018.6
20260502123017 42 84 0.0 6.0 0.00 0.00 0.00 63 1019.2
20260502121514 40 52 2.0 6.0 0.00 0.00 0.00 64 1019.2
20260502114514 38 95 1.0 3.0 0.00 0.00 0.00 69 1019.3
20260502113011 37 94 0.0 3.0 0.00 0.00 0.00 70 1019.1
20260502111510 36 86 0.0 2.0 0.00 0.00 0.00 71 1019.1
20260502110009 36 84 0.0 0.0 0.00 0.00 0.00 71 1019.0
20260502104515 36 84 0.0 0.0 0.00 0.00 0.00 71 1019.0
20260502103008 36 84 0.0 0.0 0.00 0.00 0.00 72 1019.0
20260502101504 37 84 0.0 0.0 0.00 0.00 0.00 68 1019.1
20260502070041 42 91 0.0 3.0 0.00 0.00 0.00 54 1019.5
20260502064536 42 80 0.0 2.0 0.00 0.00 0.00 54 1019.1
20260502063048 42 84 0.0 0.0 0.00 0.00 0.00 53 1019.6
20260502061534 42 84 0.0 2.0 0.00 0.00 0.00 53 1019.2
20260502060035 42 89 0.0 1.0 0.00 0.00 0.00 54 1019.2
20260502054532 42 89 0.0 0.0 0.00 0.00 0.00 54 1019.3
20260502053031 42 89 0.0 0.0 0.00 0.00 0.00 53 1019.3
20260502051534 43 89 0.0 0.0 0.00 0.00 0.00 54 1019.4
20260502050028 43 89 0.0 1.0 0.00 0.00 0.00 51 1019.3
20260502044525 44 89 0.0 1.0 0.00 0.00 0.00 49 1019.6
20260502043025 44 82 0.0 2.0 0.00 0.00 0.00 49 1019.2
20260502041526 44 124 0.0 0.0 0.00 0.00 0.00 49 1019.2
20260502040024 44 124 0.0 1.0 0.00 0.00 0.00 50 1019.2
20260502034522 45 124 0.0 0.0 0.00 0.00 0.00 48 1019.2
20260502033021 45 124 0.0 0.0 0.00 0.00 0.00 46 1019.7
20260502031521 46 124 0.0 0.0 0.00 0.00 0.00 45 1019.2
20260502030023 46 124 0.0 1.0 0.00 0.00 0.00 44 1019.3
20260502024519 47 124 0.0 0.0 0.00 0.00 0.00 42 1019.7
20260502023029 48 124 0.0 2.0 0.00 0.00 0.00 40 1019.2
20260502021520 48 124 0.0 1.0 0.00 0.00 0.00 37 1019.1
20260502020024 49 124 0.0 1.0 0.00 0.00 0.00 36 1019.0
20260502014517 50 124 0.0 1.0 0.00 0.00 0.00 35 1018.8
20260502013017 51 124 0.0 1.0 0.00 0.00 0.00 34 1019.0
20260502011517 52 124 0.0 3.0 0.00 0.00 0.00 32 1018.7
20260502010016 52 115 1.0 4.0 0.00 0.00 0.00 30 1018.6
20260502004516 53 133 1.0 6.0 0.00 0.00 0.00 31 1019.0
20260502003017 52 131 0.0 4.0 0.00 0.00 0.00 31 1018.6
20260502001515 53 106 0.0 4.0 0.00 0.00 0.00 30 1019.0
20260502000017 52 139 0.0 3.0 0.00 0.00 0.00 32 1018.6
20260501234513 53 220 0.0 6.0 0.00 0.00 0.00 30 1018.6
20260501233013 53 122 0.0 1.0 0.00 0.00 0.00 31 1019.1
20260501231513 54 116 3.0 7.0 0.00 0.00 0.00 28 1018.6
20260501230012 54 101 1.0 7.0 0.00 0.00 0.00 28 1018.9
20260501224512 54 110 4.0 8.0 0.00 0.00 0.00 28 1019.1